This is the latest recevied weather packets stored in our database for station/object N0FDH. If no packets are shown the sender has not sent any weather packets the latest 10 day(s).
| Time | Temp. | Humidity | Pressure | Rain* | Wind** | Luminosity | Snow |
|---|---|---|---|---|---|---|---|
| 1777998041 | 5° C | 56% | 1009.8 hPa | 0 mm | - | 264 W/m² | - |
| 1777997738 | 5° C | 54% | 1009.8 hPa | 0 mm | - | 240 W/m² | - |
| 1777997435 | 5° C | 60% | 1009.8 hPa | 0 mm | - | 174 W/m² | - |
| 1777997133 | 4.44° C | 57% | 1009.6 hPa | 0 mm | - | 226 W/m² | - |
| 1777996830 | 5° C | 57% | 1009.5 hPa | 0 mm | - | 305 W/m² | - |
| 1777996526 | 4.44° C | 58% | 1009.5 hPa | 0 mm | - | 271 W/m² | - |
| 1777996223 | 4.44° C | 59% | 1009.6 hPa | 0 mm | - | 174 W/m² | - |
| 1777995919 | 5° C | 56% | 1009.4 hPa | 0 mm | - | 238 W/m² | - |
| 1777995615 | 4.44° C | 54% | 1009.5 hPa | 0 mm | - | 299 W/m² | - |
| 1777995313 | 5° C | 56% | 1009.4 hPa | 0 mm | - | 316 W/m² | - |
| 1777995009 | 5° C | 55% | 1009.3 hPa | 0 mm | - | 298 W/m² | - |
| 1777994706 | 4.44° C | 56% | 1009.2 hPa | 0 mm | - | 282 W/m² | - |
| 1777994402 | 4.44° C | 59% | 1009.1 hPa | 0 mm | - | 228 W/m² | - |
| 1777994097 | 4.44° C | 58% | 1009.1 hPa | 0 mm | - | 215 W/m² | - |
| 1777993795 | 4.44° C | 56% | 1009 hPa | 0 mm | - | 206 W/m² | - |
| 1777993491 | 4.44° C | 55% | 1009.2 hPa | 0 mm | - | 220 W/m² | - |
| 1777993191 | 4.44° C | 57% | 1009 hPa | 0 mm | - | 212 W/m² | - |
| 1777992889 | 4.44° C | 54% | 1009.1 hPa | 0 mm | - | 203 W/m² | - |
| 1777992587 | 5° C | 56% | 1008.9 hPa | 0 mm | - | 293 W/m² | - |
| 1777992285 | 4.44° C | 53% | 1008.9 hPa | 0 mm | - | 245 W/m² | - |
| 1777991982 | 3.89° C | 54% | 1008.8 hPa | 0 mm | - | 195 W/m² | - |
| 1777991679 | 4.44° C | 57% | 1008.9 hPa | 0 mm | - | 215 W/m² | - |
| 1777991376 | 4.44° C | 54% | 1008.9 hPa | 0 mm | - | 204 W/m² | - |
| 1777991073 | 3.89° C | 58% | 1008.7 hPa | 0 mm | - | 166 W/m² | - |
| 1777990771 | 3.89° C | 58% | 1008.8 hPa | 0 mm | - | 152 W/m² | - |
* Rain latest hour (hover to see other rain measurements)
** Current wind speed in m/s (hover to see current wind gust speed)